CAPE
0 37 662 1263 1448 1163 1147 986 510 682 1245 1213 1189 1148 1092 942 753 539 264 3 0 0 0 3 92 592 552 861 589 720 668 640 618 517 608 464 104 15 0 3 67 189 54
10 514 609 1281 1602 1607 1485 1179 897 1201 1145 1078 1028 944 823 619 434 322 166 0 0 0 0 4 49 378 478 200 260 611 419 397 468 385 242 274 119 0 0 0 60 42 170
215 428 1217 1589 1634 1592 1434 1474 1377 1414 1135 883 847 737 507 417 364 274 59 8 6 8 113 383 603 503 529 200 182 393 334 348 400 174 153 31 32 83 0 0 0 0 6
0 0 8 1341 1588 1259 1117 1190 1284 1392 1303 913 520 487 406 469 542 375 91 74 188 155 247 774 661 503 579 199 15 40 238 227 231 270 147 62 295 401 43 0 0 0 0
0 0 0 36 234 806 1277 1369 1356 1216 1235 1214 1019 630 549 602 698 644 243 135 516 876 840 800 699 487 367 239 0 0 88 220 136 31 0 14 252 447 21 0 0 0 0
0 0 0 0 0 0 1 80 613 1115 1247 1223 1159 1188 958 820 842 882 896 599 615 808 881 877 832 513 413 341 328 255 248 109 226 0 0 67 256 417 48 0 0 0 0
0 0 0 0 0 0 0 0 0 0 41 757 1233 1174 1103 1114 1116 1333 1391 1282 1118 1111 818 863 965 663 337 278 317 413 715 398 92 0 2 124 172 414 59 0 0 0 0
0 0 0 0 0 0 0 0 0 0 0 0 4 619 1140 1198 1117 1439 1268 1207 1306 1236 879 759 1121 977 635 196 121 424 750 170 1 0 10 72 461 249 29 1 0 0 0
0 0 0 0 0 0 0 0 0 0 0 0 0 0 13 141 644 1032 1268 1233 1329 1396 1542 1416 1390 1307 1117 643 399 326 481 280 0 0 0 3 497 378 144 17 0 0 0
0 0 0 0 0 0 0 0 0 0 0 0 0 0 0 0 0 671 883 970 1225 1331 1276 1315 1444 1340 1279 1062 731 311 76 265 0 0 0 0 694 556 225 87 40 23 3
0 0 0 0 0 0 0 0 0 0 0 0 0 0 0 0 0 266 502 484 476 1069 1141 1175 1197 1255 1025 777 579 335 52 11 20 0 0 0 921 581 347 64 32 56 55
0 0 0 0 0 0 0 0 0 0 0 0 0 0 0 0 0 0 0 0 132 424 779 990 989 726 731 539 301 174 42 0 0 0 0 0 880 606 370 201 384 626 582
0 0 0 0 0 0 0 0 0 0 0 0 0 0 0 0 0 0 0 13 298 342 242 500 516 513 436 240 163 118 103 14 0 0 0 0 1036 534 240 364 571 477 780
0 0 0 0 0 0 0 0 0 0 0 0 0 0 0 0 0 0 0 0 0 56 412 561 514 529 483 229 171 59 173 120 0 0 0 0 510 860 658 481 566 728 679
0 0 0 0 0 0 0 0 0 0 0 0 0 0 0 0 0 0 0 0 0 0 28 110 299 381 322 236 172 185 198 222 206 148 89 21 20 455 649 583 266 119 446
0 0 0 0 0 0 0 0 0 0 0 0 0 0 0 0 0 0 0 0 0 0 0 0 92 292 279 299 231 209 239 180 213 199 217 214 1 19 287 463 420 159 154
0 0 0 0 0 0 0 0 0 0 0 0 0 0 0 0 0 0 0 0 0 0 0 0 0 0 31 92 131 177 236 200 180 175 97 115 177 0 2 427 520 667 533
0 0 0 0 0 0 0 0 0 0 0 0 0 0 0 0 0 0 0 0 0 0 0 0 0 0 0 2 26 32 104 172 214 224 229 216 235 302 18 0 332 641 793
0 0 0 0 0 0 0 0 0 0 0 0 0 0 0 0 1 0 0 0 0 0 0 0 0 0 0 0 0 1 25 64 127 248 167 224 278 288 338 309 0 36 266
0 0 0 0 0 0 0 0 0 0 0 0 0 0 0 0 0 1 2 7 4 1 0 0 0 0 0 0 0 0 0 0 6 10 70 204 227 303 298 296 311 0 0
0 0 0 0 0 0 0 0 0 0 0 3 0 0 0 0 0 0 0 0 0 0 10 4 3 6 0 0 1 0 0 0 0 0 0 0 7 58 362 448 495 404 252
0 0 0 0 0 0 0 0 0 0 0 2 0 0 0 1 6 0 0 0 0 0 0 0 2 14 21 8 21 8 0 0 0 0 0 0 1 63 67 125 113 159 287
0 0 0 0 0 0 0 0 0 0 0 0 0 1 1 2 0 0 0 0 0 1 1 2 0 0 4 0 0 50 48 36 12 7 0 0 0 3 19 63 73 116 92
0 0 0 0 0 0 0 0 0 0 0 0 0 0 0 1 1 3 1 0 1 0 1 2 1 2 8 6 1 5 0 10 42 18 0 0 0 0 0 0 0 53 63
0 0 0 0 0 0 0 0 0 0 0 0 0 0 0 0 0 0 0 0 0 0 0 0 1 4 8 18 20 11 0 0 0 4 6 0 0 0 0 0 0 0 1
0 0 0 0 0 0 0 0 0 0 0 0 0 0 0 0 0 0 0 0 0 0 0 1 4 6 8 11 8 7 9 17 18 13 7 2 2 0 0 0 0 1 2
CIN
0 -349 -71 -29 -6 -6 -2 -2 -59 -27 0 0 0 -1 -2 -5 -10 -44 -152 -167 0 0 0 -229 -221 -70 -85 -43 -79 -55 -49 -39 -42 -68 -37 -60 -242 -432 0 -447 -266 -143 -306
-109 -63 -59 -28 -9 -1 0 -1 -3 -1 -1 0 0 0 -2 -20 -65 -116 -198 0 0 0 0 -196 -237 -86 -79 -166 -157 -70 -97 -94 -74 -96 -152 -137 -225 0 0 -41 -250 -299 -157
-142 -100 -13 -6 -7 -4 -3 -3 -1 0 -1 -5 -4 -6 -48 -67 -78 -117 -248 -318 -319 -317 -197 -68 -24 -42 -42 -144 -167 -96 -112 -111 -97 -174 -201 -352 -380 -279 0 0 0 0 -207
0 0 -218 -10 -2 -2 -4 -3 -3 -3 -2 -8 -41 -52 -87 -56 -32 -71 -213 -218 -134 -152 -93 -2 -14 -28 -19 -135 -294 -257 -135 -141 -148 -158 -248 -314 -130 -122 -342 0 0 0 0
0 0 0 -157 -229 -33 -4 -2 -1 -2 -3 -3 -5 -22 -33 -22 -3 -6 -118 -180 -16 0 -1 0 -1 -22 -40 -86 -14 0 -207 -131 -193 -271 -14 -32 -174 -97 -144 0 0 0 0
0 0 0 0 0 0 -10 -342 -55 -5 -2 -1 -1 -1 -3 -2 0 0 0 -4 -5 -1 -1 -1 0 -2 -12 -32 -32 -59 -82 -170 -134 0 0 -245 -181 -115 -296 0 0 0 0
0 0 0 0 0 0 0 0 0 0 -286 -46 0 0 0 0 0 0 0 -1 -1 -1 -1 0 0 0 -16 -26 -25 -15 -1 -25 -187 0 -40 -231 -205 -96 -266 0 0 0 0
0 0 0 0 0 0 0 0 0 0 0 0 -140 -43 -1 0 0 0 -1 -1 -1 0 -1 -1 0 0 -1 -59 -101 -2 -1 -66 -126 0 -125 -242 -64 -129 -251 -19 0 0 0
0 0 0 0 0 0 0 0 0 0 0 0 0 0 -61 -199 -33 -7 -2 -2 -1 0 0 0 0 0 0 -2 -8 -8 -2 -14 0 0 0 -7 -52 -51 -149 -245 0 0 0
0 0 0 0 0 0 0 0 0 0 0 0 0 0 0 0 0 -43 -35 -20 -5 -2 -2 -1 0 0 0 0 0 -13 -98 -9 -13 0 0 0 -38 -18 -46 -113 -152 -172 -80
0 0 0 0 0 0 0 0 0 0 0 0 0 0 0 0 0 -30 -23 -28 -47 -12 -9 -5 -2 -1 -1 -2 -3 -9 -80 -164 -153 0 0 0 -18 -17 -20 -72 -90 -76 -85
0 0 0 0 0 0 0 0 0 0 0 0 0 0 0 0 0 0 0 0 -66 -37 -17 -10 -9 -14 -8 -10 -30 -46 -68 0 0 0 0 0 -19 -15 -16 -30 -6 0 0
0 0 0 0 0 0 0 0 0 0 0 0 0 0 0 0 0 0 0 -50 -43 -33 -50 -27 -31 -25 -24 -34 -40 -51 -78 -94 0 0 0 0 -34 -17 -19 -20 -6 0 0
0 0 0 0 0 0 0 0 0 0 0 0 0 0 0 0 0 0 0 0 0 -89 -19 -14 -19 -12 -13 -38 -33 -31 -29 -58 -30 0 0 0 -62 -24 -16 -19 -12 0 0
0 0 0 0 0 0 0 0 0 0 0 0 0 0 0 0 0 0 0 0 0 0 -41 -66 -24 -21 -17 -25 -39 -38 -26 -24 -35 -29 -25 -14 -153 -61 -29 -20 -24 -31 -2
0 0 0 0 0 0 0 0 0 0 0 0 0 0 0 0 0 0 0 0 0 0 0 0 -174 -22 -20 -15 -20 -36 -32 -50 -40 -44 -24 -19 -28 -66 -56 -26 -21 -30 -24
0 0 0 0 0 0 0 0 0 0 0 0 0 0 0 0 0 0 0 0 0 0 0 0 0 -1 -33 -99 -57 -24 -23 -40 -49 -58 -78 -62 -32 0 -5 -31 -21 -17 -19
0 0 0 0 0 0 0 0 0 0 0 0 0 0 -1 0 0 0 0 0 0 0 0 0 0 0 0 -28 -23 -25 -63 -33 -18 -18 -24 -42 -42 -36 -11 0 -43 -27 -20
0 0 0 0 0 0 0 0 0 0 0 0 0 0 -7 -4 -18 -10 0 0 0 0 0 0 0 0 0 0 0 -4 -34 -45 -39 -9 -17 -24 -22 -21 -20 -33 0 -53 -65
0 0 0 0 0 0 0 0 0 0 0 0 0 0 0 0 0 -10 -37 -43 -45 -24 0 0 0 0 0 0 0 0 0 0 -8 -15 -36 -19 -16 -20 -27 -26 -46 0 0
0 0 0 0 0 0 0 0 0 0 0 -7 0 0 0 -1 0 0 0 0 0 -4 -31 -51 -36 -26 0 0 -22 0 0 0 0 0 0 0 -23 -34 -22 -25 -20 -31 -53
0 0 0 0 0 0 0 0 0 0 -1 -7 -5 0 0 0 -1 -1 0 0 0 0 0 0 0 -28 -29 -55 -7 -16 -2 0 0 0 0 0 -29 -38 -57 -42 -39 -24 -17
0 0 0 0 0 0 0 0 0 0 0 0 -2 -1 -1 -2 -1 0 0 0 0 -2 0 -1 0 0 0 0 0 0 -2 -3 -5 -42 0 0 0 -141 -57 -68 -49 -117 -79
0 0 0 0 0 0 0 0 0 0 0 0 0 0 -3 -2 -4 -3 -6 -1 -1 0 -1 -1 0 0 0 0 0 -5 -2 -2 0 -1 0 0 0 0 0 0 0 -47 -38
0 0 0 0 0 0 0 0 0 0 0 0 0 0 0 0 0 0 0 -6 -1 -1 -1 -1 0 -1 0 0 0 -1 0 0 -1 -2 -1 0 0 0 0 0 0 0 0
0 0 0 0 0 0 0 0 0 0 0 0 0 0 0 0 0 0 0 0 0 -2 -1 -1 -2 -1 -1 0 -1 -1 -1 0 0 0 0 0 -3 0 0 0 0 0 0
Wind_Speed
4 8 8 6 6 5 4 4 3 3 3 3 3 3 4 4 5 4 2 2 2 2 2 2 4 6 2 5 5 6 7 7 6 8 9 8 8 6 6 7 8 6 6
2 12 6 6 8 5 4 3 3 3 2 2 2 2 2 2 1 1 1 1 1 1 1 1 2 3 3 3 4 5 5 5 4 4 6 7 7 6 5 7 10 7 8
10 14 12 4 6 4 3 4 4 3 1 0 0 0 0 1 1 2 2 2 2 1 2 3 1 2 2 3 2 3 3 3 2 1 4 4 5 8 5 6 6 5 5
11 10 11 17 12 4 1 1 2 4 4 2 1 2 2 2 2 2 2 3 3 3 3 2 2 1 1 1 0 1 1 1 1 5 4 7 6 8 7 4 4 3 3
12 9 11 16 16 15 14 11 6 2 3 3 3 3 4 4 4 4 4 4 4 4 5 2 2 2 2 2 2 2 2 3 4 6 7 4 5 7 7 5 3 3 3
10 9 12 15 15 14 13 13 12 11 8 4 3 5 6 6 6 6 6 6 6 5 5 6 6 5 4 5 5 5 4 4 5 7 7 3 7 10 7 5 3 4 3
7 8 8 12 12 12 12 12 11 10 9 9 7 5 6 8 9 8 7 7 7 7 7 8 9 8 7 7 8 8 6 5 5 6 6 1 6 11 8 6 5 4 4
7 7 6 8 7 8 9 10 10 9 8 7 6 6 5 6 8 9 9 8 9 10 10 10 10 10 9 9 9 9 8 7 6 6 8 4 11 10 9 7 7 7 7
7 7 6 7 7 7 6 8 7 6 7 7 6 6 6 7 7 9 10 10 10 10 11 10 11 11 11 11 10 9 9 8 5 5 8 4 14 14 11 9 9 9 9
6 7 7 7 7 8 6 5 6 5 5 7 7 7 7 9 11 12 12 10 12 12 12 11 12 12 11 11 11 10 10 9 6 6 7 6 14 13 11 10 11 12 11
5 6 6 7 7 7 7 7 9 7 7 8 9 9 7 5 6 6 8 6 8 13 13 13 13 13 12 11 12 12 10 4 6 6 6 10 12 14 13 12 13 14 13
5 5 6 6 7 7 6 7 7 7 5 6 6 6 4 6 6 6 7 10 11 9 11 13 13 13 10 6 5 12 5 7 6 7 6 14 16 15 14 12 13 14 15
4 5 6 6 6 6 5 5 3 3 4 4 8 7 6 6 5 5 3 4 4 8 6 8 8 7 8 7 7 6 8 9 7 7 9 12 17 17 15 14 14 15 15
5 5 6 6 5 6 4 4 5 4 4 4 5 7 5 4 5 5 4 6 4 4 5 5 3 5 6 7 10 9 9 8 7 7 8 13 16 17 17 16 16 17 18
5 5 5 5 5 5 5 4 4 4 4 5 5 6 5 5 5 6 7 6 6 5 4 5 4 4 5 6 6 6 6 7 6 5 4 7 14 17 18 18 18 20 21
5 5 4 4 5 5 4 5 4 4 5 4 4 5 6 4 4 4 5 7 7 6 6 5 5 5 5 4 5 6 7 6 6 7 5 8 11 15 17 18 19 20 22
4 4 4 3 4 4 4 5 4 4 4 4 4 5 6 5 5 5 4 5 5 6 8 6 6 4 4 4 6 6 5 7 7 9 7 5 5 13 16 19 21 21 22
1 3 4 3 5 5 5 4 4 4 4 3 3 3 6 6 6 5 4 4 5 5 5 5 5 5 5 4 4 4 4 6 8 9 7 6 6 7 10 19 20 22 22
2 4 3 2 4 5 4 3 5 6 5 5 6 7 11 10 12 7 4 5 5 4 4 5 6 4 4 5 5 5 5 5 6 7 7 8 9 9 7 10 18 20 21
1 1 1 2 4 5 3 3 4 4 5 4 5 7 9 8 11 9 8 9 8 5 5 5 5 4 4 4 6 6 5 5 5 5 6 7 9 10 9 10 7 8 20
4 3 2 2 3 2 2 2 2 2 4 3 4 7 7 7 8 7 6 7 8 7 8 9 5 6 4 4 3 4 4 6 8 8 9 9 10 11 10 9 7 5 5
3 3 1 2 3 2 2 2 1 1 2 1 3 5 7 7 6 8 7 7 7 7 8 9 9 5 3 7 4 5 4 4 5 5 4 4 5 4 5 6 8 10 8
5 3 1 1 1 1 2 2 3 3 3 2 3 3 5 5 7 8 8 7 8 7 6 8 8 9 6 6 7 4 4 2 7 3 9 3 6 5 4 5 6 7 7
5 3 2 2 0 2 2 3 3 1 1 2 2 1 3 5 6 6 7 7 7 7 8 7 7 7 7 7 7 4 4 5 4 5 4 7 7 9 8 6 6 6 6
6 5 4 3 2 1 0 1 2 3 2 2 3 5 4 3 2 4 6 6 7 6 7 7 8 7 5 5 5 5 9 7 4 3 6 8 7 5 7 7 8 7 10
6 5 5 5 4 3 2 1 1 2 3 3 3 3 3 3 3 5 5 5 6 7 7 7 6 6 6 5 5 6 6 5 6 4 5 8 9 9 6 6 8 8 8
Wind_Direction
8 133 125 131 146 134 115 102 95 82 70 82 83 72 52 47 54 57 56 37 5 333 336 14 10 30 83 85 75 67 59 47 48 82 89 93 91 76 58 28 343 87 89
324 58 100 138 145 150 148 138 119 102 86 64 65 68 52 32 44 45 21 358 340 345 308 331 348 33 65 78 87 77 70 64 69 85 109 110 114 99 68 46 50 69 57
49 42 40 91 124 140 154 160 146 155 164 126 58 1 1 309 327 322 316 305 306 326 324 284 3 36 49 72 74 81 86 75 98 260 213 187 157 133 97 72 65 71 66
61 54 46 52 51 63 106 177 192 190 195 187 237 257 257 271 283 290 287 285 290 295 328 43 93 71 86 73 19 309 164 137 271 267 268 250 177 144 119 106 91 81 76
85 59 51 55 54 52 46 39 20 268 240 228 227 251 261 267 271 273 267 261 269 293 307 234 206 219 243 236 238 238 239 234 263 278 271 278 130 139 133 137 140 140 76
88 80 58 57 56 51 49 48 44 34 16 338 259 247 256 259 260 262 255 259 264 271 280 258 231 233 243 251 247 240 234 244 262 271 265 213 134 149 150 154 132 133 154
59 87 83 68 62 58 48 41 38 37 28 20 357 307 282 266 267 263 264 248 249 255 264 269 248 239 243 250 255 255 234 242 258 274 290 196 140 154 163 171 186 197 199
62 50 47 90 90 81 66 49 32 23 18 10 5 347 332 309 293 268 269 263 252 253 255 260 253 246 244 246 250 254 258 228 256 261 267 268 159 176 178 192 202 205 208
52 45 33 21 31 103 79 67 29 3 355 345 339 337 325 304 282 275 265 253 249 247 248 248 250 244 245 245 244 246 255 238 249 276 289 260 181 185 183 201 213 219 221
57 42 26 20 10 2 342 47 352 294 318 307 298 294 286 281 264 247 244 245 246 242 238 239 241 247 251 244 241 240 243 244 242 259 271 273 184 188 189 205 220 224 228
69 56 31 19 5 354 332 4 347 303 276 287 280 267 267 276 282 256 234 245 271 245 233 233 238 240 242 241 238 235 236 225 230 235 242 266 193 191 197 206 226 228 230
42 40 36 19 4 353 344 2 323 319 340 327 325 327 319 310 317 315 294 280 265 259 252 247 239 239 235 233 233 228 226 222 232 245 237 234 201 200 205 213 226 235 230
44 42 28 12 357 359 2 323 325 348 331 340 344 331 348 334 308 301 285 256 221 230 243 237 240 237 234 227 230 214 206 218 225 230 242 243 198 203 210 215 225 235 241
81 54 33 6 357 4 352 340 341 338 339 328 350 343 340 328 327 322 320 311 286 243 249 255 244 242 236 235 240 226 212 214 219 226 233 227 198 204 212 219 224 230 235
79 62 31 10 358 355 347 342 340 332 335 351 337 333 339 336 335 328 320 322 318 318 278 253 259 245 252 258 260 255 255 249 239 255 255 252 209 206 213 219 227 235 238
88 60 42 8 0 335 347 352 333 327 326 338 324 320 332 329 333 320 322 318 319 318 312 297 252 232 238 239 268 270 264 257 259 258 250 253 215 216 217 223 227 234 239
60 56 40 11 348 344 356 355 338 326 338 317 306 338 328 342 336 320 310 308 303 306 309 309 308 307 275 239 241 251 276 278 274 266 258 245 261 229 220 223 230 233 234
49 58 56 16 325 351 35 6 330 312 300 299 310 315 5 330 298 292 290 289 296 306 309 313 310 308 299 286 259 255 240 242 252 261 265 257 250 244 230 237 235 232 234
39 57 33 359 7 343 42 4 328 344 354 359 22 18 358 359 1 338 311 291 286 291 294 293 300 300 304 301 290 272 252 235 240 251 254 257 255 251 242 227 235 241 237
10 41 295 24 16 337 34 18 9 23 349 19 12 13 8 356 358 2 357 0 358 331 307 292 287 289 273 276 301 304 296 286 287 266 242 240 246 249 242 246 236 234 240
213 225 71 6 352 355 3 11 10 8 355 349 35 360 354 354 352 360 354 355 353 346 345 3 336 323 310 308 304 291 281 270 273 265 259 255 252 250 246 241 245 239 231
216 143 95 50 2 359 18 313 250 309 353 35 23 349 352 354 4 346 344 343 346 344 351 359 357 339 325 359 322 304 288 298 276 291 322 328 331 294 301 274 267 269 263
196 123 135 143 303 47 355 324 4 3 1 6 340 326 352 346 354 356 349 348 348 347 343 346 342 351 334 328 344 300 320 321 338 316 320 312 337 331 290 283 278 258 260
157 135 202 214 194 85 13 357 353 289 323 264 274 325 3 360 11 350 343 353 354 346 343 343 348 340 338 323 327 5 335 311 327 316 357 321 342 338 330 330 310 302 291
137 187 207 213 158 123 320 52 356 8 339 331 10 347 14 15 36 6 350 351 357 357 345 342 342 336 327 322 339 336 323 320 282 335 299 334 327 328 324 341 341 29 28
170 191 210 203 192 189 203 155 57 1 334 350 357 7 348 2 9 31 4 356 350 355 354 351 343 337 334 341 355 355 349 335 332 323 307 309 299 309 320 309 17 21 25